^^
Your Local Weather - Clay, NY Station Historical Data
Daily Summary for January 15, 2017 Units:  English    Metric   Both
« Previous Day
Next Day »
Daily Weekly Monthly Yearly Custom
  High: Low: Average:
Temperature: 33.2 °F 17.8 °F 27.8 °F
Dew Point: 22.2 °F 14.8 °F 19.5 °F
Humidity: 90% 49% 71%
Wind Speed: 5.0mph 0.0mph 1.6mph
Wind Gust: 14.0mph - -
Wind- - West
Pressure: 30.40 in 30.30 in -
Precipitation: 0.00 in    
Historical Graphs
 
 
Tabular Data for January 15, 2017
Time Temperature Dew Point Pressure Wind Wind Speed Wind Gust Humidity Rainfall Rate (Hourly) solar
00:00 18.2 °F 15.2 °F 30.31 in Calm     88% 0.00 in 0 W/m2
00:06 18.2 °F 15.2 °F 30.31 in Calm     88% 0.00 in 0 W/m2
00:12 18.0 °F 15.0 °F 30.31 in Calm     88% 0.00 in 0 W/m2
00:18 17.8 °F 14.8 °F 30.31 in Calm     88% 0.00 in 0 W/m2
00:24 17.9 °F 14.9 °F 30.31 in Calm     88% 0.00 in 0 W/m2
00:30 18.3 °F 15.6 °F 30.31 in Calm     89% 0.00 in 0 W/m2
00:36 18.8 °F 16.1 °F 30.31 in Calm     89% 0.00 in 0 W/m2
00:42 19.5 °F 17.0 °F 30.30 in Calm     90% 0.00 in 0 W/m2
00:48 20.3 °F 17.8 °F 30.30 in Calm     90% 0.00 in 0 W/m2
00:54 21.1 °F 18.6 °F 30.30 in Calm     90% 0.00 in 0 W/m2
01:00 22.0 °F 19.5 °F 30.30 in Calm     90% 0.00 in 0 W/m2
01:06 22.6 °F 19.6 °F 30.30 in Calm   1.0 mph 88% 0.00 in 0 W/m2
01:12 23.0 °F 19.4 °F 30.30 in SW 1.0 mph 1.0 mph 86% 0.00 in 0 W/m2
01:18 23.2 °F 19.1 °F 30.30 in SW 1.0 mph 1.0 mph 84% 0.00 in 0 W/m2
01:24 23.3 °F 18.9 °F 30.30 in Calm   1.0 mph 83% 0.00 in 0 W/m2
01:30 23.2 °F 18.8 °F 30.30 in Calm     83% 0.00 in 0 W/m2
01:36 23.1 °F 18.7 °F 30.31 in Calm     83% 0.00 in 0 W/m2
01:42 23.1 °F 18.7 °F 30.31 in Calm     83% 0.00 in 0 W/m2
01:48 23.1 °F 18.7 °F 30.31 in Calm     83% 0.00 in 0 W/m2
01:54 23.3 °F 18.9 °F 30.31 in Calm   2.0 mph 83% 0.00 in 0 W/m2
02:00 23.6 °F 19.5 °F 30.31 in Calm     84% 0.00 in 0 W/m2
02:06 24.0 °F 19.6 °F 30.32 in Calm   2.0 mph 83% 0.00 in 0 W/m2
02:12 24.1 °F 19.4 °F 30.32 in SW 1.0 mph 3.0 mph 82% 0.00 in 0 W/m2
02:18 24.3 °F 19.6 °F 30.32 in WSW 1.0 mph 3.0 mph 82% 0.00 in 0 W/m2
02:24 24.4 °F 19.4 °F 30.32 in WSW 1.0 mph 2.0 mph 81% 0.00 in 0 W/m2
02:30 24.5 °F 19.5 °F 30.32 in WSW 1.0 mph 2.0 mph 81% 0.00 in 0 W/m2
02:36 24.5 °F 19.5 °F 30.32 in Calm   2.0 mph 81% 0.00 in 0 W/m2
02:42 24.7 °F 19.4 °F 30.32 in WSW 1.0 mph 1.0 mph 80% 0.00 in 0 W/m2
02:48 24.7 °F 19.4 °F 30.32 in WSW 1.0 mph 1.0 mph 80% 0.00 in 0 W/m2
02:54 24.8 °F 19.5 °F 30.32 in WSW 1.0 mph 3.0 mph 80% 0.00 in 0 W/m2
03:00 24.9 °F 19.6 °F 30.32 in WSW 2.0 mph 2.0 mph 80% 0.00 in 0 W/m2
03:06 24.9 °F 19.6 °F 30.32 in WSW 1.0 mph 2.0 mph 80% 0.00 in 0 W/m2
03:12 24.9 °F 19.6 °F 30.32 in West 1.0 mph 2.0 mph 80% 0.00 in 0 W/m2
03:18 24.9 °F 19.6 °F 30.32 in WSW 2.0 mph 2.0 mph 80% 0.00 in 0 W/m2
03:24 24.9 °F 19.6 °F 30.32 in West 2.0 mph 2.0 mph 80% 0.00 in 0 W/m2
03:30 24.8 °F 19.5 °F 30.32 in West 1.0 mph 1.0 mph 80% 0.00 in 0 W/m2
03:36 24.7 °F 19.7 °F 30.32 in WSW 1.0 mph 2.0 mph 81% 0.00 in 0 W/m2
03:42 24.6 °F 19.3 °F 30.32 in WSW 1.0 mph 3.0 mph 80% 0.00 in 0 W/m2
03:48 24.6 °F 19.6 °F 30.32 in WSW 1.0 mph 3.0 mph 81% 0.00 in 0 W/m2
03:54 24.6 °F 19.6 °F 30.31 in SW 2.0 mph 2.0 mph 81% 0.00 in 0 W/m2
04:00 24.7 °F 19.7 °F 30.31 in SW 2.0 mph 2.0 mph 81% 0.00 in 0 W/m2
04:06 24.7 °F 20.0 °F 30.31 in WSW 2.0 mph 2.0 mph 82% 0.00 in 0 W/m2
04:12 24.8 °F 20.1 °F 30.32 in WSW 2.0 mph 2.0 mph 82% 0.00 in 0 W/m2
04:18 24.9 °F 20.2 °F 30.32 in West 2.0 mph 2.0 mph 82% 0.00 in 0 W/m2
04:24 25.0 °F 20.0 °F 30.32 in SW 2.0 mph 2.0 mph 81% 0.00 in 0 W/m2
04:30 25.0 °F 20.0 °F 30.32 in West 2.0 mph 2.0 mph 81% 0.00 in 0 W/m2
04:36 25.1 °F 20.1 °F 30.32 in WSW 2.0 mph 2.0 mph 81% 0.00 in 0 W/m2
04:42 25.1 °F 20.1 °F 30.32 in SW 2.0 mph 3.0 mph 81% 0.00 in 0 W/m2
04:48 25.3 °F 20.3 °F 30.32 in WSW 3.0 mph 4.0 mph 81% 0.00 in 0 W/m2
04:54 25.3 °F 20.3 °F 30.32 in WSW 3.0 mph 4.0 mph 81% 0.00 in 0 W/m2
05:00 25.3 °F 20.3 °F 30.32 in WSW 2.0 mph 2.0 mph 81% 0.00 in 0 W/m2
05:06 25.4 °F 20.4 °F 30.32 in West 2.0 mph 5.0 mph 81% 0.00 in 0 W/m2
05:12 25.4 °F 20.4 °F 30.32 in SW 2.0 mph 2.0 mph 81% 0.00 in 0 W/m2
05:18 25.4 °F 20.4 °F 30.32 in WSW 2.0 mph 2.0 mph 81% 0.00 in 0 W/m2
05:24 25.4 °F 20.4 °F 30.32 in SW 2.0 mph 2.0 mph 81% 0.00 in 0 W/m2
05:30 25.5 °F 20.5 °F 30.32 in WSW 2.0 mph 2.0 mph 81% 0.00 in 0 W/m2
05:36 25.5 °F 20.5 °F 30.32 in WSW 2.0 mph 3.0 mph 81% 0.00 in 0 W/m2
05:42 25.5 °F 20.5 °F 30.32 in WSW 2.0 mph 2.0 mph 81% 0.00 in 0 W/m2
05:48 25.6 °F 20.6 °F 30.32 in West 2.0 mph 2.0 mph 81% 0.00 in 0 W/m2
05:54 25.6 °F 20.6 °F 30.32 in West 2.0 mph 5.0 mph 81% 0.00 in 0 W/m2
06:00 25.8 °F 20.8 °F 30.33 in West 3.0 mph 3.0 mph 81% 0.00 in 0 W/m2
06:06 25.8 °F 20.5 °F 30.33 in West 3.0 mph 3.0 mph 80% 0.00 in 0 W/m2
06:12 25.8 °F 20.5 °F 30.33 in WSW 3.0 mph 3.0 mph 80% 0.00 in 0 W/m2
06:18 25.9 °F 20.6 °F 30.33 in WSW 2.0 mph 3.0 mph 80% 0.00 in 0 W/m2
06:24 25.9 °F 20.6 °F 30.33 in West 2.0 mph 2.0 mph 80% 0.00 in 0 W/m2
06:30 25.9 °F 20.6 °F 30.33 in WSW 1.0 mph 1.0 mph 80% 0.00 in 0 W/m2
06:36 26.0 °F 20.7 °F 30.34 in WSW 2.0 mph 8.0 mph 80% 0.00 in 0 W/m2
06:42 26.0 °F 20.7 °F 30.34 in WSW 2.0 mph 2.0 mph 80% 0.00 in 0 W/m2
06:48 26.1 °F 20.8 °F 30.34 in WSW 2.0 mph 2.0 mph 80% 0.00 in 0 W/m2
06:54 26.1 °F 20.8 °F 30.34 in WSW 2.0 mph 3.0 mph 80% 0.00 in 0 W/m2
07:00 26.1 °F 20.8 °F 30.35 in WSW 2.0 mph 2.0 mph 80% 0.00 in 0 W/m2
07:06 26.2 °F 20.9 °F 30.34 in WSW 2.0 mph 2.0 mph 80% 0.00 in 0 W/m2
07:12 26.3 °F 21.0 °F 30.34 in WSW 1.0 mph 1.0 mph 80% 0.00 in 0 W/m2
07:18 26.4 °F 21.1 °F 30.35 in WNW 2.0 mph 2.0 mph 80% 0.00 in 0 W/m2
07:24 26.5 °F 21.2 °F 30.35 in NW 1.0 mph 2.0 mph 80% 0.00 in 0 W/m2
07:30 26.5 °F 21.2 °F 30.35 in Calm   1.0 mph 80% 0.00 in 0 W/m2
07:36 26.5 °F 21.2 °F 30.36 in NW 1.0 mph 1.0 mph 80% 0.00 in 0 W/m2
07:42 26.6 °F 21.6 °F 30.36 in NW 1.0 mph 2.0 mph 81% 0.00 in 0 W/m2
07:48 26.7 °F 21.4 °F 30.36 in NW 1.0 mph 2.0 mph 80% 0.00 in 0 W/m2
07:54 26.8 °F 21.5 °F 30.36 in NW 1.0 mph 1.0 mph 80% 0.00 in 5 W/m2
08:00 26.9 °F 21.6 °F 30.36 in NW 1.0 mph 2.0 mph 80% 0.00 in 9 W/m2
08:06 26.9 °F 21.6 °F 30.36 in WSW 1.0 mph 2.0 mph 80% 0.00 in 14 W/m2
08:12 27.1 °F 21.7 °F 30.37 in West 1.0 mph 1.0 mph 80% 0.00 in 18 W/m2
08:18 27.2 °F 21.8 °F 30.37 in Calm   1.0 mph 80% 0.00 in 28 W/m2
08:24 27.3 °F 21.9 °F 30.38 in West 1.0 mph 1.0 mph 80% 0.00 in 26 W/m2
08:30 27.4 °F 22.0 °F 30.38 in West 1.0 mph 1.0 mph 80% 0.00 in 39 W/m2
08:36 27.4 °F 22.0 °F 30.38 in West 1.0 mph 1.0 mph 80% 0.00 in 39 W/m2
08:42 27.6 °F 22.2 °F 30.38 in Calm   1.0 mph 80% 0.00 in 46 W/m2
08:48 27.7 °F 22.0 °F 30.38 in NW 1.0 mph 2.0 mph 79% 0.00 in 58 W/m2
08:54 28.1 °F 21.2 °F 30.38 in NNW 2.0 mph 5.0 mph 75% 0.00 in 49 W/m2
09:00 28.4 °F 20.8 °F 30.38 in NW 4.0 mph 4.0 mph 73% 0.00 in 67 W/m2
09:06 28.6 °F 20.1 °F 30.38 in NW 5.0 mph 5.0 mph 70% 0.00 in 86 W/m2
09:12 28.7 °F 19.8 °F 30.38 in WNW 5.0 mph 5.0 mph 69% 0.00 in 84 W/m2
09:18 28.7 °F 19.8 °F 30.39 in WNW 5.0 mph 14.0 mph 69% 0.00 in 88 W/m2
09:24 28.8 °F 19.6 °F 30.39 in NW 5.0 mph 7.0 mph 68% 0.00 in 202 W/m2
09:30 29.2 °F 19.9 °F 30.39 in NNW 4.0 mph 4.0 mph 68% 0.00 in 116 W/m2
09:36 29.3 °F 20.4 °F 30.39 in NW 2.0 mph 4.0 mph 69% 0.00 in 116 W/m2
09:42 29.5 °F 19.9 °F 30.39 in WNW 2.0 mph 9.0 mph 67% 0.00 in 121 W/m2
09:48 29.4 °F 19.4 °F 30.39 in West 4.0 mph 9.0 mph 66% 0.00 in 246 W/m2
09:54 29.7 °F 19.0 °F 30.39 in NNW 5.0 mph 8.0 mph 64% 0.00 in 160 W/m2
10:00 29.4 °F 19.1 °F 30.39 in North 5.0 mph 5.0 mph 65% 0.00 in 160 W/m2
10:06 29.3 °F 19.0 °F 30.39 in NW 4.0 mph 5.0 mph 65% 0.00 in 125 W/m2
10:12 29.5 °F 19.2 °F 30.39 in NW 3.0 mph 3.0 mph 65% 0.00 in 137 W/m2
10:18 30.4 °F 20.0 °F 30.39 in NW 3.0 mph 5.0 mph 65% 0.00 in 427 W/m2
10:24 31.4 °F 18.7 °F 30.39 in WNW 4.0 mph 5.0 mph 59% 0.00 in 396 W/m2
10:32 31.3 °F 18.2 °F 30.39 in NW 4.0 mph 5.0 mph 58% 0.00 in 403 W/m2
10:38 31.4 °F 18.7 °F 30.39 in West 4.0 mph 5.0 mph 59% 0.00 in 424 W/m2
10:44 32.5 °F 19.7 °F 30.39 in NW 3.0 mph 5.0 mph 59% 0.00 in 476 W/m2
10:50 31.8 °F 18.3 °F 30.39 in NW 3.0 mph 3.0 mph 57% 0.00 in 390 W/m2
10:56 32.1 °F 18.6 °F 30.39 in WNW 4.0 mph 6.0 mph 57% 0.00 in 527 W/m2
11:02 31.5 °F 18.0 °F 30.39 in WNW 4.0 mph 4.0 mph 57% 0.00 in 483 W/m2
11:08 32.3 °F 18.3 °F 30.38 in NNW 4.0 mph 8.0 mph 56% 0.00 in 466 W/m2
11:14 32.2 °F 17.0 °F 30.38 in WNW 4.0 mph 4.0 mph 53% 0.00 in 496 W/m2
11:20 32.3 °F 17.5 °F 30.38 in NW 4.0 mph 4.0 mph 54% 0.00 in 487 W/m2
11:26 32.0 °F 17.2 °F 30.38 in WNW 4.0 mph 7.0 mph 54% 0.00 in 482 W/m2
11:32 32.2 °F 18.2 °F 30.37 in West 4.0 mph 4.0 mph 56% 0.00 in 473 W/m2
11:38 32.4 °F 18.8 °F 30.37 in West 4.0 mph 7.0 mph 57% 0.00 in 519 W/m2
11:44 33.0 °F 19.0 °F 30.37 in NNW 3.0 mph 4.0 mph 56% 0.00 in 575 W/m2
11:50 32.1 °F 17.7 °F 30.37 in NW 4.0 mph 4.0 mph 55% 0.00 in 512 W/m2
11:56 33.0 °F 18.1 °F 30.37 in WNW 4.0 mph 6.0 mph 54% 0.00 in 492 W/m2
12:02 32.7 °F 18.3 °F 30.36 in NNW 4.0 mph 4.0 mph 55% 0.00 in 494 W/m2
12:08 32.8 °F 18.8 °F 30.36 in West 3.0 mph 5.0 mph 56% 0.00 in 531 W/m2
12:14 32.2 °F 18.7 °F 30.36 in WNW 4.0 mph 8.0 mph 57% 0.00 in 513 W/m2
12:20 32.8 °F 18.8 °F 30.35 in NW 4.0 mph 4.0 mph 56% 0.00 in 478 W/m2
12:26 32.8 °F 18.0 °F 30.35 in WNW 4.0 mph 4.0 mph 54% 0.00 in 475 W/m2
12:32 31.8 °F 17.0 °F 30.35 in West 5.0 mph 7.0 mph 54% 0.00 in 471 W/m2
12:38 32.2 °F 17.8 °F 30.35 in WNW 4.0 mph 7.0 mph 55% 0.00 in 469 W/m2
12:44 33.2 °F 18.8 °F 30.35 in NW 3.0 mph 4.0 mph 55% 0.00 in 469 W/m2
12:50 33.0 °F 18.1 °F 30.35 in NW 3.0 mph 3.0 mph 54% 0.00 in 469 W/m2
12:56 32.9 °F 17.2 °F 30.35 in NW 3.0 mph 8.0 mph 52% 0.00 in 466 W/m2
13:02 32.0 °F 15.9 °F 30.35 in NW 5.0 mph 6.0 mph 51% 0.00 in 452 W/m2
13:04 31.9 °F 16.2 °F 30.34 in WNW 5.0 mph 6.0 mph 52% 0.00 in 452 W/m2
13:10 32.7 °F 15.6 °F 30.34 in NW 4.0 mph 5.0 mph 49% 0.00 in 450 W/m2
13:16 33.2 °F 17.0 °F 30.35 in WNW 4.0 mph 5.0 mph 51% 0.00 in 446 W/m2
13:22 32.5 °F 17.2 °F 30.35 in NW 5.0 mph 7.0 mph 53% 0.00 in 441 W/m2
13:28 32.8 °F 17.5 °F 30.36 in WSW 5.0 mph 7.0 mph 53% 0.00 in 443 W/m2
13:34 32.7 °F 17.9 °F 30.36 in West 4.0 mph 6.0 mph 54% 0.00 in 436 W/m2
13:40 32.4 °F 18.0 °F 30.36 in WNW 4.0 mph 4.0 mph 55% 0.00 in 95 W/m2
13:46 31.4 °F 17.5 °F 30.36 in NW 4.0 mph 4.0 mph 56% 0.00 in 123 W/m2
13:52 31.1 °F 18.0 °F 30.36 in WNW 3.0 mph 3.0 mph 58% 0.00 in 134 W/m2
13:58 31.3 °F 18.6 °F 30.36 in NW 5.0 mph 8.0 mph 59% 0.00 in 120 W/m2
14:04 31.4 °F 19.1 °F 30.36 in NNW 4.0 mph 5.0 mph 60% 0.00 in 135 W/m2
14:10 31.1 °F 18.8 °F 30.36 in WNW 3.0 mph 3.0 mph 60% 0.00 in 114 W/m2
14:16 31.0 °F 18.7 °F 30.36 in WNW 3.0 mph 3.0 mph 60% 0.00 in 88 W/m2
14:22 30.8 °F 19.3 °F 30.36 in WSW 3.0 mph 6.0 mph 62% 0.00 in 116 W/m2
14:28 30.5 °F 18.3 °F 30.36 in WNW 4.0 mph 6.0 mph 60% 0.00 in 121 W/m2
14:34 30.5 °F 18.6 °F 30.36 in West 3.0 mph 6.0 mph 61% 0.00 in 132 W/m2
14:40 30.6 °F 19.1 °F 30.36 in West 3.0 mph 3.0 mph 62% 0.00 in 104 W/m2
14:46 30.7 °F 19.2 °F 30.36 in West 2.0 mph 3.0 mph 62% 0.00 in 77 W/m2
14:52 30.6 °F 19.5 °F 30.36 in WNW 2.0 mph 2.0 mph 63% 0.00 in 69 W/m2
14:58 30.5 °F 19.0 °F 30.36 in West 2.0 mph 4.0 mph 62% 0.00 in 69 W/m2
15:04 30.4 °F 18.9 °F 30.36 in WNW 3.0 mph 3.0 mph 62% 0.00 in 74 W/m2
15:10 30.3 °F 18.8 °F 30.36 in WNW 3.0 mph 3.0 mph 62% 0.00 in 81 W/m2
15:16 30.3 °F 19.2 °F 30.36 in WNW 2.0 mph 3.0 mph 63% 0.00 in 70 W/m2
15:22 30.2 °F 19.1 °F 30.36 in West 3.0 mph 3.0 mph 63% 0.00 in 74 W/m2
15:28 30.1 °F 19.0 °F 30.36 in WNW 3.0 mph 5.0 mph 63% 0.00 in 58 W/m2
15:34 30.1 °F 19.0 °F 30.37 in WSW 2.0 mph 3.0 mph 63% 0.00 in 63 W/m2
15:40 30.1 °F 19.4 °F 30.37 in WNW 2.0 mph 3.0 mph 64% 0.00 in 54 W/m2
15:46 30.0 °F 19.3 °F 30.37 in WNW 3.0 mph 3.0 mph 64% 0.00 in 67 W/m2
15:52 30.0 °F 19.3 °F 30.37 in NW 2.0 mph 2.0 mph 64% 0.00 in 67 W/m2
15:58 29.9 °F 19.2 °F 30.37 in NW 1.0 mph 2.0 mph 64% 0.00 in 56 W/m2
16:04 29.9 °F 18.8 °F 30.37 in NW 1.0 mph 3.0 mph 63% 0.00 in 46 W/m2
16:10 29.9 °F 19.2 °F 30.37 in West 2.0 mph 2.0 mph 64% 0.00 in 83 W/m2
16:16 29.8 °F 18.7 °F 30.37 in West 2.0 mph 4.0 mph 63% 0.00 in 26 W/m2
16:22 29.6 °F 18.9 °F 30.37 in WSW 2.0 mph 2.0 mph 64% 0.00 in 18 W/m2
16:28 29.4 °F 19.1 °F 30.37 in WSW 1.0 mph 2.0 mph 65% 0.00 in 16 W/m2
16:40 29.0 °F 19.1 °F 30.36 in Calm   1.0 mph 66% 0.00 in 11 W/m2
16:46 28.9 °F 19.0 °F 30.36 in WSW 1.0 mph 2.0 mph 66% 0.00 in 7 W/m2
16:52 28.7 °F 19.1 °F 30.37 in Calm     67% 0.00 in 5 W/m2
16:58 28.5 °F 18.9 °F 30.37 in Calm   1.0 mph 67% 0.00 in 0 W/m2
17:04 28.3 °F 18.7 °F 30.37 in Calm     67% 0.00 in 0 W/m2
17:10 28.0 °F 18.8 °F 30.37 in Calm     68% 0.00 in 0 W/m2
17:16 27.8 °F 18.9 °F 30.37 in Calm     69% 0.00 in 0 W/m2
17:22 27.5 °F 18.7 °F 30.37 in Calm     69% 0.00 in 0 W/m2
17:28 27.3 °F 19.5 °F 30.37 in Calm     72% 0.00 in 0 W/m2
17:34 27.2 °F 19.4 °F 30.37 in Calm     72% 0.00 in 0 W/m2
17:40 27.1 °F 19.3 °F 30.37 in Calm     72% 0.00 in 0 W/m2
17:48 27.1 °F 19.6 °F 30.37 in Calm     73% 0.00 in 0 W/m2
17:54 27.1 °F 19.9 °F 30.38 in Calm     74% 0.00 in 0 W/m2
18:00 27.1 °F 20.2 °F 30.39 in Calm     75% 0.00 in 0 W/m2
18:06 27.0 °F 19.8 °F 30.39 in Calm     74% 0.00 in 0 W/m2
18:12 27.0 °F 20.1 °F 30.39 in Calm     75% 0.00 in 0 W/m2
18:18 27.1 °F 20.2 °F 30.39 in Calm     75% 0.00 in 0 W/m2
18:24 27.2 °F 20.3 °F 30.39 in Calm     75% 0.00 in 0 W/m2
18:30 27.3 °F 20.4 °F 30.39 in Calm     75% 0.00 in 0 W/m2
18:36 27.3 °F 20.4 °F 30.39 in Calm     75% 0.00 in 0 W/m2
18:42 27.4 °F 20.5 °F 30.39 in Calm     75% 0.00 in 0 W/m2
18:48 27.4 °F 20.2 °F 30.39 in Calm     74% 0.00 in 0 W/m2
18:54 27.7 °F 20.5 °F 30.39 in Calm     74% 0.00 in 0 W/m2
19:00 27.9 °F 20.7 °F 30.39 in Calm     74% 0.00 in 0 W/m2
19:06 28.0 °F 20.8 °F 30.39 in Calm     74% 0.00 in 0 W/m2
19:12 28.0 °F 20.8 °F 30.39 in Calm     74% 0.00 in 0 W/m2
19:18 28.1 °F 20.9 °F 30.39 in Calm     74% 0.00 in 0 W/m2
19:24 28.1 °F 20.9 °F 30.39 in Calm     74% 0.00 in 0 W/m2
19:30 28.2 °F 21.0 °F 30.40 in Calm     74% 0.00 in 0 W/m2
19:36 28.3 °F 21.1 °F 30.40 in Calm     74% 0.00 in 0 W/m2
19:42 28.3 °F 21.4 °F 30.40 in Calm     75% 0.00 in 0 W/m2
19:48 28.3 °F 21.4 °F 30.39 in Calm     75% 0.00 in 0 W/m2
19:54 28.3 °F 21.4 °F 30.39 in Calm     75% 0.00 in 0 W/m2
20:00 28.3 °F 21.1 °F 30.39 in Calm     74% 0.00 in 0 W/m2
20:06 28.3 °F 21.1 °F 30.39 in Calm     74% 0.00 in 0 W/m2
20:12 28.3 °F 21.1 °F 30.39 in Calm   1.0 mph 74% 0.00 in 0 W/m2
20:18 28.4 °F 20.8 °F 30.39 in Calm   2.0 mph 73% 0.00 in 0 W/m2
20:24 28.6 °F 20.1 °F 30.39 in West 1.0 mph 1.0 mph 70% 0.00 in 0 W/m2
20:30 28.8 °F 20.2 °F 30.39 in Calm     70% 0.00 in 0 W/m2
20:36 28.9 °F 20.0 °F 30.39 in Calm     69% 0.00 in 0 W/m2
20:42 29.0 °F 20.4 °F 30.38 in Calm     70% 0.00 in 0 W/m2
20:48 28.9 °F 20.7 °F 30.38 in Calm     71% 0.00 in 0 W/m2
20:54 28.9 °F 20.7 °F 30.39 in Calm     71% 0.00 in 0 W/m2
21:00 28.7 °F 20.8 °F 30.38 in Calm     72% 0.00 in 0 W/m2
21:06 28.6 °F 20.7 °F 30.38 in Calm     72% 0.00 in 0 W/m2
21:12 28.4 °F 20.2 °F 30.39 in West 1.0 mph 1.0 mph 71% 0.00 in 0 W/m2
21:18 28.4 °F 19.9 °F 30.38 in West 1.0 mph 2.0 mph 70% 0.00 in 0 W/m2
21:24 28.5 °F 19.6 °F 30.39 in Calm   1.0 mph 69% 0.00 in 0 W/m2
21:30 28.7 °F 19.5 °F 30.39 in West 1.0 mph 1.0 mph 68% 0.00 in 0 W/m2
21:36 28.8 °F 19.2 °F 30.39 in West 1.0 mph 2.0 mph 67% 0.00 in 0 W/m2
21:42 28.9 °F 19.7 °F 30.39 in West 1.0 mph 2.0 mph 68% 0.00 in 0 W/m2
21:48 29.0 °F 20.1 °F 30.39 in WSW 1.0 mph 3.0 mph 69% 0.00 in 0 W/m2
21:54 29.1 °F 19.8 °F 30.39 in WSW 1.0 mph 1.0 mph 68% 0.00 in 0 W/m2
22:00 29.2 °F 19.6 °F 30.39 in West 1.0 mph 1.0 mph 67% 0.00 in 0 W/m2
22:06 29.3 °F 19.7 °F 30.39 in West 1.0 mph 1.0 mph 67% 0.00 in 0 W/m2
22:12 29.3 °F 20.0 °F 30.39 in Calm   1.0 mph 68% 0.00 in 0 W/m2
22:18 29.3 °F 19.7 °F 30.39 in West 1.0 mph 2.0 mph 67% 0.00 in 0 W/m2
22:24 29.4 °F 19.8 °F 30.39 in Calm   1.0 mph 67% 0.00 in 0 W/m2
22:30 29.4 °F 20.1 °F 30.39 in Calm     68% 0.00 in 0 W/m2
22:36 29.3 °F 20.0 °F 30.39 in West 1.0 mph 2.0 mph 68% 0.00 in 0 W/m2
22:42 29.3 °F 19.3 °F 30.39 in West 1.0 mph 1.0 mph 66% 0.00 in 0 W/m2
22:48 29.5 °F 19.5 °F 30.39 in SW 2.0 mph 3.0 mph 66% 0.00 in 0 W/m2
22:54 29.5 °F 19.5 °F 30.39 in SW 2.0 mph 4.0 mph 66% 0.00 in 0 W/m2
23:00 29.5 °F 19.9 °F 30.39 in SW 1.0 mph 2.0 mph 67% 0.00 in 0 W/m2
23:06 29.4 °F 20.1 °F 30.39 in SW 1.0 mph 2.0 mph 68% 0.00 in 0 W/m2
23:12 29.2 °F 19.9 °F 30.39 in SW 1.0 mph 1.0 mph 68% 0.00 in 0 W/m2
23:18 29.0 °F 19.8 °F 30.38 in SW 1.0 mph 2.0 mph 68% 0.00 in 0 W/m2
23:24 28.7 °F 19.5 °F 30.38 in Calm   1.0 mph 68% 0.00 in 0 W/m2
23:30 28.3 °F 19.1 °F 30.38 in Calm     68% 0.00 in 0 W/m2
23:36 28.1 °F 18.9 °F 30.38 in Calm   1.0 mph 68% 0.00 in 0 W/m2
23:42 27.8 °F 18.9 °F 30.38 in Calm     69% 0.00 in 0 W/m2
23:48 27.4 °F 18.6 °F 30.37 in Calm   2.0 mph 69% 0.00 in 0 W/m2
23:54 27.3 °F 18.5 °F 30.38 in Calm     69% 0.00 in 0 W/m2
Country Meadow, Clay, NY, USA
Compliments of Weather Underground - 2 mb